Regional Weather Roundup
Issued by NWS

Home | Current Version | Previous Version | Graphics & Text | Print | Product List | Glossary On
Versions: 1 2 3 4 5 6 7 8 9 10 11 12 13 14 15 16 17 18 19 20 21 22 23 24 25 26 27 28 29 30 31 32 33 34 35 36 37 38 39 40 41 42 43 44 45 46 47 48 49 50
000
ASUS43 KBIS 270702
RWRND

NORTH DAKOTA REGIONAL WEATHER ROUNDUP
NATIONAL WEATHER SERVICE BISMARCK ND
200 AM CDT SAT MAY 27 2017

NOTE: "FAIR" INDICATES FEW OR NO CLOUDS BELOW 12,000 FEET WITH NO
SIGNIFICANT WEATHER AND/OR OBSTRUCTIONS TO VISIBILITY.


NDZ001>003-009>011-017-270800-
NORTHWEST NORTH DAKOTA

CITY           SKY/WX    TMP DP  RH WIND       PRES   REMARKS
WILLISTON      FAIR      52  40  63 W14       29.84S
MINOT          FAIR      55  39  54 SW12      29.81R
MINOT AFB      MOCLDY    53  40  63 W12       29.79R
$$

NDZ018>021-031>035-040>046-270800-
SOUTHWEST NORTH DAKOTA

CITY           SKY/WX    TMP DP  RH WIND       PRES   REMARKS
BISMARCK       FAIR      51  38  60 W5        29.86S
DICKINSON      FAIR      41  33  73 W8        29.88R
GARRISON         N/A     47  36  65 W8        29.84R
HETTINGER ARPT PTCLDY    44  35  70 CALM      29.93S
$$

NDZ004>008-012>016-024-026-027-054-270800-
NORTHEAST NORTH DAKOTA

CITY           SKY/WX    TMP DP  RH WIND       PRES   REMARKS
GRAND FORKS    CLOUDY    55  44  66 SW12      29.78R
GRND FRKS AFB  CLOUDY    48  42  80 SW7       29.79R
DEVILS LAKE    FAIR      53  43  68 SW8       29.80R
$$

NDZ022-023-025-028>030-036>039-047>053-270800-
SOUTHEAST NORTH DAKOTA

CITY           SKY/WX    TMP DP  RH WIND       PRES   REMARKS
FARGO          CLOUDY    51  43  74 SW7       29.82S
JAMESTOWN      FAIR      54  42  64 SW8       29.82S
$$





USA.gov is the U.S. government's official web portal to all federal, state and local government web resources and services.